Year,Month,Day,Hour,Minute,Value (Times are PST for temperature in C)
2017,08,11,00,00,18.00
2017,08,11,00,01,18.00
2017,08,11,00,02,18.00
2017,08,11,00,03,18.00
2017,08,11,00,04,17.90
2017,08,11,00,05,17.90
2017,08,11,00,06,17.90
2017,08,11,00,07,17.90
2017,08,11,00,08,17.80
2017,08,11,00,09,17.80
2017,08,11,00,10,17.80
2017,08,11,00,11,17.80
2017,08,11,00,12,17.80
2017,08,11,00,13,17.80
2017,08,11,00,14,17.70
2017,08,11,00,15,17.70
2017,08,11,00,16,17.70
2017,08,11,00,17,17.70
2017,08,11,00,18,17.70
2017,08,11,00,19,17.70
2017,08,11,00,20,17.70
2017,08,11,00,21,17.70
2017,08,11,00,22,17.60
2017,08,11,00,23,17.60
2017,08,11,00,24,17.60
2017,08,11,00,25,17.60
2017,08,11,00,26,17.60
2017,08,11,00,27,17.60
2017,08,11,00,28,17.60
2017,08,11,00,29,17.50
2017,08,11,00,30,17.50
2017,08,11,00,31,17.50
2017,08,11,00,32,17.50
2017,08,11,00,33,17.50
2017,08,11,00,34,17.50
2017,08,11,00,35,17.40
2017,08,11,00,36,17.40
2017,08,11,00,37,17.40
2017,08,11,00,38,17.40
2017,08,11,00,39,17.40
2017,08,11,00,40,17.40
2017,08,11,00,41,17.40
2017,08,11,00,42,17.40
2017,08,11,00,43,17.30
2017,08,11,00,44,17.30
2017,08,11,00,45,17.30
2017,08,11,00,46,17.30
2017,08,11,00,47,17.30
2017,08,11,00,48,17.30
2017,08,11,00,49,17.30
2017,08,11,00,50,17.30
2017,08,11,00,51,17.30
2017,08,11,00,52,17.30
2017,08,11,00,53,17.30
2017,08,11,00,54,17.20
2017,08,11,00,55,17.20
2017,08,11,00,56,17.20
2017,08,11,00,57,17.20
2017,08,11,00,58,17.20
2017,08,11,00,59,17.20
2017,08,11,01,00,17.20
2017,08,11,01,01,17.10
2017,08,11,01,02,17.10
2017,08,11,01,03,17.10
2017,08,11,01,04,17.10
2017,08,11,01,05,17.10
2017,08,11,01,06,17.00
2017,08,11,01,07,17.00
2017,08,11,01,08,17.00
2017,08,11,01,09,16.90
2017,08,11,01,10,16.90
2017,08,11,01,11,16.90
2017,08,11,01,12,16.90
2017,08,11,01,13,16.90
2017,08,11,01,14,16.80
2017,08,11,01,15,16.80
2017,08,11,01,16,16.80
2017,08,11,01,17,16.80
2017,08,11,01,18,16.80
2017,08,11,01,19,16.70
2017,08,11,01,20,16.70
2017,08,11,01,21,16.70
2017,08,11,01,22,16.70
2017,08,11,01,23,16.70
2017,08,11,01,24,16.70
2017,08,11,01,25,16.60
2017,08,11,01,26,16.60
2017,08,11,01,27,16.60
2017,08,11,01,28,16.60
2017,08,11,01,29,16.60
2017,08,11,01,30,16.60
2017,08,11,01,31,16.60
2017,08,11,01,32,16.50
2017,08,11,01,33,16.50
2017,08,11,01,34,16.50
2017,08,11,01,35,16.50
2017,08,11,01,36,16.50
2017,08,11,01,37,16.40
2017,08,11,01,38,16.40
2017,08,11,01,39,16.40
2017,08,11,01,40,16.40
2017,08,11,01,41,16.40
2017,08,11,01,42,16.40
2017,08,11,01,43,16.30
2017,08,11,01,44,16.30
2017,08,11,01,45,16.30
2017,08,11,01,46,16.30
2017,08,11,01,47,16.30
2017,08,11,01,48,16.30
2017,08,11,01,49,16.20
2017,08,11,01,50,16.20
2017,08,11,01,51,16.20
2017,08,11,01,52,16.20
2017,08,11,01,53,16.20
2017,08,11,01,54,16.20
2017,08,11,01,55,16.20
2017,08,11,01,56,16.20
2017,08,11,01,57,16.20
2017,08,11,01,58,16.10
2017,08,11,01,59,16.10
2017,08,11,02,00,16.10
2017,08,11,02,01,16.10
2017,08,11,02,02,16.10
2017,08,11,02,03,16.10
2017,08,11,02,04,16.10
2017,08,11,02,05,16.10
2017,08,11,02,06,16.10
2017,08,11,02,07,16.10
2017,08,11,02,08,16.10
2017,08,11,02,09,16.00
2017,08,11,02,10,16.00
2017,08,11,02,11,16.00
2017,08,11,02,12,15.90
2017,08,11,02,13,15.90
2017,08,11,02,14,15.90
2017,08,11,02,15,15.90
2017,08,11,02,16,15.80
2017,08,11,02,17,15.80
2017,08,11,02,18,15.80
2017,08,11,02,19,15.80
2017,08,11,02,20,15.70
2017,08,11,02,21,15.70
2017,08,11,02,22,15.70
2017,08,11,02,23,15.70
2017,08,11,02,24,15.60
2017,08,11,02,25,15.60
2017,08,11,02,26,15.60
2017,08,11,02,27,15.60
2017,08,11,02,28,15.50
2017,08,11,02,29,15.50
2017,08,11,02,30,15.50
2017,08,11,02,31,15.40
2017,08,11,02,32,15.40
2017,08,11,02,33,15.40
2017,08,11,02,34,15.40
2017,08,11,02,35,15.40
2017,08,11,02,36,15.40
2017,08,11,02,37,15.30
2017,08,11,02,38,15.30
2017,08,11,02,39,15.30
2017,08,11,02,40,15.30
2017,08,11,02,41,15.30
2017,08,11,02,42,15.30
2017,08,11,02,43,15.30
2017,08,11,02,44,15.20
2017,08,11,02,45,15.20
2017,08,11,02,46,15.20
2017,08,11,02,47,15.10
2017,08,11,02,48,15.10
2017,08,11,02,49,15.10
2017,08,11,02,50,15.00
2017,08,11,02,51,15.00
2017,08,11,02,52,14.90
2017,08,11,02,53,14.90
2017,08,11,02,54,14.90
2017,08,11,02,55,14.80
2017,08,11,02,56,14.80
2017,08,11,02,57,14.70
2017,08,11,02,58,14.70
2017,08,11,02,59,14.70
2017,08,11,03,00,14.60
2017,08,11,03,01,14.60
2017,08,11,03,02,14.50
2017,08,11,03,03,14.50
2017,08,11,03,04,14.50
2017,08,11,03,05,14.40
2017,08,11,03,06,14.40
2017,08,11,03,07,14.30
2017,08,11,03,08,14.30
2017,08,11,03,09,14.30
2017,08,11,03,10,14.20
2017,08,11,03,11,14.20
2017,08,11,03,12,14.20
2017,08,11,03,13,14.10
2017,08,11,03,14,14.10
2017,08,11,03,15,14.10
2017,08,11,03,16,14.00
2017,08,11,03,17,14.00
2017,08,11,03,18,14.00
2017,08,11,03,19,14.00
2017,08,11,03,20,14.00
2017,08,11,03,21,14.00
2017,08,11,03,22,14.00
2017,08,11,03,23,13.90
2017,08,11,03,24,13.90
2017,08,11,03,25,13.90
2017,08,11,03,26,13.90
2017,08,11,03,27,13.90
2017,08,11,03,28,13.90
2017,08,11,03,29,13.80
2017,08,11,03,30,13.80
2017,08,11,03,31,13.80
2017,08,11,03,32,13.80
2017,08,11,03,33,13.80
2017,08,11,03,34,13.80
2017,08,11,03,35,13.80
2017,08,11,03,36,13.80
2017,08,11,03,37,13.80
2017,08,11,03,38,13.80
2017,08,11,03,39,13.80
2017,08,11,03,40,13.80
2017,08,11,03,41,13.80
2017,08,11,03,42,13.80
2017,08,11,03,43,13.80
2017,08,11,03,44,13.80
2017,08,11,03,45,13.80
2017,08,11,03,46,13.80
2017,08,11,03,47,13.80
2017,08,11,03,48,13.80
2017,08,11,03,49,13.80
2017,08,11,03,50,13.80
2017,08,11,03,51,13.80
2017,08,11,03,52,13.80
2017,08,11,03,53,13.80
2017,08,11,03,54,13.80
2017,08,11,03,55,13.80
2017,08,11,03,56,13.80
2017,08,11,03,57,13.80
2017,08,11,03,58,13.80
2017,08,11,03,59,13.80
2017,08,11,04,00,13.80
2017,08,11,04,01,13.80
2017,08,11,04,02,13.80
2017,08,11,04,03,13.80
2017,08,11,04,04,13.80
2017,08,11,04,05,13.80
2017,08,11,04,06,13.80
2017,08,11,04,07,13.80
2017,08,11,04,08,13.80
2017,08,11,04,09,13.80
2017,08,11,04,10,13.80
2017,08,11,04,11,13.70
2017,08,11,04,12,13.70
2017,08,11,04,13,13.70
2017,08,11,04,14,13.70
2017,08,11,04,15,13.70
2017,08,11,04,16,13.70
2017,08,11,04,17,13.70
2017,08,11,04,18,13.70
2017,08,11,04,19,13.70
2017,08,11,04,20,13.70
2017,08,11,04,21,13.70
2017,08,11,04,22,13.70
2017,08,11,04,23,13.70
2017,08,11,04,24,13.70
2017,08,11,04,25,13.70
2017,08,11,04,26,13.70
2017,08,11,04,27,13.70
2017,08,11,04,28,13.80
2017,08,11,04,29,13.80
2017,08,11,04,30,13.80
2017,08,11,04,31,13.80
2017,08,11,04,32,13.70
2017,08,11,04,33,13.80
2017,08,11,04,34,13.80
2017,08,11,04,35,13.70
2017,08,11,04,36,13.70
2017,08,11,04,37,13.70
2017,08,11,04,38,13.70
2017,08,11,04,39,13.70
2017,08,11,04,40,13.70
2017,08,11,04,41,13.70
2017,08,11,04,42,13.70
2017,08,11,04,43,13.70
2017,08,11,04,44,13.70
2017,08,11,04,45,13.70
2017,08,11,04,46,13.70
2017,08,11,04,47,13.70
2017,08,11,04,48,13.70
2017,08,11,04,49,13.70
2017,08,11,04,50,13.70
2017,08,11,04,51,13.70
2017,08,11,04,52,13.60
2017,08,11,04,53,13.60
2017,08,11,04,54,13.60
2017,08,11,04,55,13.60
2017,08,11,04,56,13.60
2017,08,11,04,57,13.60
2017,08,11,04,58,13.60
2017,08,11,04,59,13.60
2017,08,11,05,00,13.60
2017,08,11,05,01,13.60
2017,08,11,05,02,13.60
2017,08,11,05,03,13.60
2017,08,11,05,04,13.60
2017,08,11,05,05,13.60
2017,08,11,05,06,13.60
2017,08,11,05,07,13.60
2017,08,11,05,08,13.60
2017,08,11,05,09,13.60
2017,08,11,05,10,13.60
2017,08,11,05,11,13.60
2017,08,11,05,12,13.60
2017,08,11,05,13,13.60
2017,08,11,05,14,13.60
2017,08,11,05,15,13.50
2017,08,11,05,16,13.50
2017,08,11,05,17,13.50
2017,08,11,05,18,13.50
2017,08,11,05,19,13.50
2017,08,11,05,20,13.50
2017,08,11,05,21,13.40
2017,08,11,05,22,13.40
2017,08,11,05,23,13.40
2017,08,11,05,24,13.40
2017,08,11,05,25,13.40
2017,08,11,05,26,13.40
2017,08,11,05,27,13.40
2017,08,11,05,28,13.40
2017,08,11,05,29,13.40
2017,08,11,05,30,13.40
2017,08,11,05,31,13.40
2017,08,11,05,32,13.40
2017,08,11,05,33,13.40
2017,08,11,05,34,13.40
2017,08,11,05,35,13.40
2017,08,11,05,36,13.40
2017,08,11,05,37,13.40
2017,08,11,05,38,13.40
2017,08,11,05,39,13.40
2017,08,11,05,40,13.40
2017,08,11,05,41,13.40
2017,08,11,05,42,13.40
2017,08,11,05,43,13.40
2017,08,11,05,44,13.40
2017,08,11,05,45,13.30
2017,08,11,05,46,13.30
2017,08,11,05,47,13.30
2017,08,11,05,48,13.30
2017,08,11,05,49,13.30
2017,08,11,05,50,13.30
2017,08,11,05,51,13.30
2017,08,11,05,52,13.30
2017,08,11,05,53,13.30
2017,08,11,05,54,13.30
2017,08,11,05,55,13.30
2017,08,11,05,56,13.30
2017,08,11,05,57,13.30
2017,08,11,05,58,13.30
2017,08,11,05,59,13.30
2017,08,11,06,00,13.30
2017,08,11,06,01,13.30
2017,08,11,06,02,13.20
2017,08,11,06,03,13.20
2017,08,11,06,04,13.20
2017,08,11,06,05,13.20
2017,08,11,06,06,13.20
2017,08,11,06,07,13.20
2017,08,11,06,08,13.20
2017,08,11,06,09,13.20
2017,08,11,06,10,13.20
2017,08,11,06,11,13.20
2017,08,11,06,12,13.20
2017,08,11,06,13,13.20
2017,08,11,06,14,13.20
2017,08,11,06,15,13.20
2017,08,11,06,16,13.20
2017,08,11,06,17,13.20
2017,08,11,06,18,13.30
2017,08,11,06,19,13.30
2017,08,11,06,20,13.20
2017,08,11,06,21,13.20
2017,08,11,06,22,13.20
2017,08,11,06,23,13.20
2017,08,11,06,24,13.20
2017,08,11,06,25,13.20
2017,08,11,06,26,13.20
2017,08,11,06,27,13.20
2017,08,11,06,28,13.20
2017,08,11,06,29,13.20
2017,08,11,06,30,13.20
2017,08,11,06,31,13.20
2017,08,11,06,32,13.20
2017,08,11,06,33,13.20
2017,08,11,06,34,13.20
2017,08,11,06,35,13.30
2017,08,11,06,36,13.30
2017,08,11,06,37,13.30
2017,08,11,06,38,13.20
2017,08,11,06,39,13.20
2017,08,11,06,40,13.20
2017,08,11,06,41,13.20
2017,08,11,06,42,13.20
2017,08,11,06,43,13.20
2017,08,11,06,44,13.20
2017,08,11,06,45,13.20
2017,08,11,06,46,13.20
2017,08,11,06,47,13.30
2017,08,11,06,48,13.30
2017,08,11,06,49,13.30
2017,08,11,06,50,13.30
2017,08,11,06,51,13.30
2017,08,11,06,52,13.30
2017,08,11,06,53,13.30
2017,08,11,06,54,13.40
2017,08,11,06,55,13.40
2017,08,11,06,56,13.40
2017,08,11,06,57,13.40
2017,08,11,06,58,13.50
2017,08,11,06,59,13.50
2017,08,11,07,00,13.50
2017,08,11,07,01,13.60
2017,08,11,07,02,13.60
2017,08,11,07,03,13.60
2017,08,11,07,04,13.60
2017,08,11,07,05,13.60
2017,08,11,07,06,13.60
2017,08,11,07,07,13.60
2017,08,11,07,08,13.70
2017,08,11,07,09,13.70
2017,08,11,07,10,13.70
2017,08,11,07,11,13.70
2017,08,11,07,12,13.70
2017,08,11,07,13,13.70
2017,08,11,07,14,13.70
2017,08,11,07,15,13.70
2017,08,11,07,16,13.80
2017,08,11,07,17,13.80
2017,08,11,07,18,13.80
2017,08,11,07,19,13.80
2017,08,11,07,20,13.80
2017,08,11,07,21,13.80
2017,08,11,07,22,13.80
2017,08,11,07,23,13.80
2017,08,11,07,24,13.80
2017,08,11,07,25,13.90
2017,08,11,07,26,13.90
2017,08,11,07,27,13.90
2017,08,11,07,28,13.90
2017,08,11,07,29,13.90
2017,08,11,07,30,13.90
2017,08,11,07,31,13.90
2017,08,11,07,32,14.00
2017,08,11,07,33,14.00
2017,08,11,07,34,14.10
2017,08,11,07,35,14.10
2017,08,11,07,36,14.10
2017,08,11,07,37,14.10
2017,08,11,07,38,14.20
2017,08,11,07,39,14.20
2017,08,11,07,40,14.20
2017,08,11,07,41,14.20
2017,08,11,07,42,14.30
2017,08,11,07,43,14.30
2017,08,11,07,44,14.30
2017,08,11,07,45,14.30
2017,08,11,07,46,14.40
2017,08,11,07,47,14.40
2017,08,11,07,48,14.40
2017,08,11,07,49,14.50
2017,08,11,07,50,14.50
2017,08,11,07,51,14.60
2017,08,11,07,52,14.60
2017,08,11,07,53,14.60
2017,08,11,07,54,14.60
2017,08,11,07,55,14.70
2017,08,11,07,56,14.70
2017,08,11,07,57,14.70
2017,08,11,07,58,14.80
2017,08,11,07,59,14.80
2017,08,11,08,00,14.90
2017,08,11,08,01,15.00
2017,08,11,08,02,15.10
2017,08,11,08,03,15.10
2017,08,11,08,04,15.20
2017,08,11,08,05,15.30
2017,08,11,08,06,15.30
2017,08,11,08,07,15.40
2017,08,11,08,08,15.50
2017,08,11,08,09,15.60
2017,08,11,08,10,15.70
2017,08,11,08,11,15.70
2017,08,11,08,12,15.80
2017,08,11,08,13,15.80
2017,08,11,08,14,15.90
2017,08,11,08,15,15.90
2017,08,11,08,16,16.00
2017,08,11,08,17,16.00
2017,08,11,08,18,16.10
2017,08,11,08,19,16.10
2017,08,11,08,20,16.20
2017,08,11,08,21,16.20
2017,08,11,08,22,16.30
2017,08,11,08,23,16.30
2017,08,11,08,24,16.40
2017,08,11,08,25,16.40
2017,08,11,08,26,16.50
2017,08,11,08,27,16.50
2017,08,11,08,28,16.60
2017,08,11,08,29,16.70
2017,08,11,08,30,16.70
2017,08,11,08,31,16.70
2017,08,11,08,32,16.80
2017,08,11,08,33,16.80
2017,08,11,08,34,16.80
2017,08,11,08,35,16.80
2017,08,11,08,36,16.80
2017,08,11,08,37,16.80
2017,08,11,08,38,16.80
2017,08,11,08,39,16.90
2017,08,11,08,40,16.90
2017,08,11,08,41,17.00
2017,08,11,08,42,17.00
2017,08,11,08,43,17.10
2017,08,11,08,44,17.10
2017,08,11,08,45,17.20
2017,08,11,08,46,17.20
2017,08,11,08,47,17.20
2017,08,11,08,48,17.20
2017,08,11,08,49,17.20
2017,08,11,08,50,17.20
2017,08,11,08,51,17.20
2017,08,11,08,52,17.20
2017,08,11,08,53,17.20
2017,08,11,08,54,17.20
2017,08,11,08,55,17.20
2017,08,11,08,56,17.20
2017,08,11,08,57,17.30
2017,08,11,08,58,17.30
2017,08,11,08,59,17.30
2017,08,11,09,00,17.30
2017,08,11,09,01,17.40
2017,08,11,09,02,17.40
2017,08,11,09,03,17.40
2017,08,11,09,04,17.40
2017,08,11,09,05,17.50
2017,08,11,09,06,17.50
2017,08,11,09,07,17.60
2017,08,11,09,08,17.60
2017,08,11,09,09,17.60
2017,08,11,09,10,17.70
2017,08,11,09,11,17.70
2017,08,11,09,12,17.70
2017,08,11,09,13,17.70
2017,08,11,09,14,17.80
2017,08,11,09,15,17.80
2017,08,11,09,16,17.80
2017,08,11,09,17,17.80
2017,08,11,09,18,17.90
2017,08,11,09,19,17.90
2017,08,11,09,20,17.90
2017,08,11,09,21,18.00
2017,08,11,09,22,18.10
2017,08,11,09,23,18.10
2017,08,11,09,24,18.20
2017,08,11,09,25,18.30
2017,08,11,09,26,18.30
2017,08,11,09,27,18.40
2017,08,11,09,28,18.50
2017,08,11,09,29,18.60
2017,08,11,09,30,18.60
2017,08,11,09,31,18.70
2017,08,11,09,32,18.70
2017,08,11,09,33,18.80
2017,08,11,09,34,18.80
2017,08,11,09,35,18.80
2017,08,11,09,36,18.90
2017,08,11,09,37,18.90
2017,08,11,09,38,18.90
2017,08,11,09,39,18.90
2017,08,11,09,40,18.90
2017,08,11,09,41,18.90
2017,08,11,09,42,18.80
2017,08,11,09,43,18.80
2017,08,11,09,44,18.80
2017,08,11,09,45,18.80
2017,08,11,09,46,18.80
2017,08,11,09,47,18.70
2017,08,11,09,48,18.70
2017,08,11,09,49,18.60
2017,08,11,09,50,18.60
2017,08,11,09,51,18.50
2017,08,11,09,52,18.50
2017,08,11,09,53,18.40
2017,08,11,09,54,18.40
2017,08,11,09,55,18.30
2017,08,11,09,56,18.30
2017,08,11,09,57,18.30
2017,08,11,09,58,18.30
2017,08,11,09,59,18.30
2017,08,11,10,00,18.30
2017,08,11,10,01,18.30
2017,08,11,10,02,18.40
2017,08,11,10,03,18.40
2017,08,11,10,04,18.40
2017,08,11,10,05,18.40
2017,08,11,10,06,18.30
2017,08,11,10,07,18.30
2017,08,11,10,08,18.30
2017,08,11,10,09,18.30
2017,08,11,10,10,18.40
2017,08,11,10,11,18.40
2017,08,11,10,12,18.40
2017,08,11,10,13,18.50
2017,08,11,10,14,18.60
2017,08,11,10,15,18.60
2017,08,11,10,16,18.70
2017,08,11,10,17,18.70
2017,08,11,10,18,18.70
2017,08,11,10,19,18.70
2017,08,11,10,20,18.70
2017,08,11,10,21,18.70
2017,08,11,10,22,18.70
2017,08,11,10,23,18.70
2017,08,11,10,24,18.70
2017,08,11,10,25,18.70
2017,08,11,10,26,18.70
2017,08,11,10,27,18.70
2017,08,11,10,28,18.70
2017,08,11,10,29,18.70
2017,08,11,10,30,18.70
2017,08,11,10,31,18.70
2017,08,11,10,32,18.70
2017,08,11,10,33,18.70
2017,08,11,10,34,18.70
2017,08,11,10,35,18.70
2017,08,11,10,36,18.80
2017,08,11,10,37,18.80
2017,08,11,10,38,18.80
2017,08,11,10,39,18.90
2017,08,11,10,40,19.00
2017,08,11,10,41,19.10
2017,08,11,10,42,19.10
2017,08,11,10,43,19.20
2017,08,11,10,44,19.30
2017,08,11,10,45,19.50
2017,08,11,10,46,19.50
2017,08,11,10,47,19.70
2017,08,11,10,48,19.70
2017,08,11,10,49,19.80
2017,08,11,10,50,19.80
2017,08,11,10,51,19.90
2017,08,11,10,52,19.90
2017,08,11,10,53,20.00
2017,08,11,10,54,20.00
2017,08,11,10,55,20.10
2017,08,11,10,56,20.20
2017,08,11,10,57,20.30
2017,08,11,10,58,20.40
2017,08,11,10,59,20.50
2017,08,11,11,00,20.70
2017,08,11,11,01,20.80
2017,08,11,11,02,20.90
2017,08,11,11,03,21.00
2017,08,11,11,04,21.10
2017,08,11,11,05,21.20
2017,08,11,11,06,21.30
2017,08,11,11,07,21.40
2017,08,11,11,08,21.50
2017,08,11,11,09,21.60
2017,08,11,11,10,21.70
2017,08,11,11,11,21.80
2017,08,11,11,12,21.80
2017,08,11,11,13,21.90
2017,08,11,11,14,21.90
2017,08,11,11,15,22.00
2017,08,11,11,16,22.00
2017,08,11,11,17,21.90
2017,08,11,11,18,21.80
2017,08,11,11,19,21.80
2017,08,11,11,20,21.70
2017,08,11,11,21,21.70
2017,08,11,11,22,21.70
2017,08,11,11,23,21.60
2017,08,11,11,24,21.50
2017,08,11,11,25,21.40
2017,08,11,11,26,21.40
2017,08,11,11,27,21.40
2017,08,11,11,28,21.40
2017,08,11,11,29,21.40
2017,08,11,11,30,21.40
2017,08,11,11,31,21.40
2017,08,11,11,32,21.30
2017,08,11,11,33,21.30
2017,08,11,11,34,21.30
2017,08,11,11,35,21.20
2017,08,11,11,36,21.20
2017,08,11,11,37,21.20
2017,08,11,11,38,21.10
2017,08,11,11,39,21.10
2017,08,11,11,40,21.10
2017,08,11,11,41,21.10
2017,08,11,11,42,21.00
2017,08,11,11,43,20.90
2017,08,11,11,44,20.90
2017,08,11,11,45,20.80
2017,08,11,11,46,20.70
2017,08,11,11,47,20.60
2017,08,11,11,48,20.50
2017,08,11,11,49,20.40
2017,08,11,11,50,20.30
2017,08,11,11,51,20.30
2017,08,11,11,52,20.30
2017,08,11,11,53,20.20
2017,08,11,11,54,20.10
2017,08,11,11,55,20.00
2017,08,11,11,56,20.00
2017,08,11,11,57,19.90
2017,08,11,11,58,19.90
2017,08,11,11,59,19.90
2017,08,11,12,00,19.90
2017,08,11,12,01,19.90
2017,08,11,12,02,19.90
2017,08,11,12,03,19.90
2017,08,11,12,04,19.90
2017,08,11,12,05,20.00
2017,08,11,12,06,20.10
2017,08,11,12,07,20.20
2017,08,11,12,08,20.30
2017,08,11,12,09,20.40
2017,08,11,12,10,20.50
2017,08,11,12,11,20.60
2017,08,11,12,12,20.70
2017,08,11,12,13,20.90
2017,08,11,12,14,21.10
2017,08,11,12,15,21.20
2017,08,11,12,16,21.40
2017,08,11,12,17,21.50
2017,08,11,12,18,21.70
2017,08,11,12,19,21.80
2017,08,11,12,20,21.90
2017,08,11,12,21,22.00
2017,08,11,12,22,22.10
2017,08,11,12,23,22.30
2017,08,11,12,24,22.40
2017,08,11,12,25,22.50
2017,08,11,12,26,22.60
2017,08,11,12,27,22.80
2017,08,11,12,28,22.90
2017,08,11,12,29,23.00
2017,08,11,12,30,23.10
2017,08,11,12,31,23.20
2017,08,11,12,32,23.30
2017,08,11,12,33,23.40
2017,08,11,12,34,23.40
2017,08,11,12,35,23.50
2017,08,11,12,36,23.50
2017,08,11,12,37,23.50
2017,08,11,12,38,23.40
2017,08,11,12,39,23.40
2017,08,11,12,40,23.40
2017,08,11,12,41,23.30
2017,08,11,12,42,23.30
2017,08,11,12,43,23.20
2017,08,11,12,44,23.10
2017,08,11,12,45,23.00
2017,08,11,12,46,22.90
2017,08,11,12,47,22.90
2017,08,11,12,48,22.90
2017,08,11,12,49,22.90
2017,08,11,12,50,22.90
2017,08,11,12,51,23.00
2017,08,11,12,52,23.00
2017,08,11,12,53,23.10
2017,08,11,12,54,23.20
2017,08,11,12,55,23.40
2017,08,11,12,56,23.50
2017,08,11,12,57,23.60
2017,08,11,12,58,23.70
2017,08,11,12,59,23.90
2017,08,11,13,00,24.00
2017,08,11,13,01,24.10
2017,08,11,13,02,24.30
2017,08,11,13,03,24.40
2017,08,11,13,04,24.40
2017,08,11,13,05,24.50
2017,08,11,13,06,24.50
2017,08,11,13,07,24.60
2017,08,11,13,08,24.60
2017,08,11,13,09,24.70
2017,08,11,13,10,24.80
2017,08,11,13,11,24.80
2017,08,11,13,12,24.90
2017,08,11,13,13,24.90
2017,08,11,13,14,25.00
2017,08,11,13,15,25.10
2017,08,11,13,16,25.20
2017,08,11,13,17,25.20
2017,08,11,13,18,25.20
2017,08,11,13,19,25.20
2017,08,11,13,20,25.30
2017,08,11,13,21,25.30
2017,08,11,13,22,25.30
2017,08,11,13,23,25.30
2017,08,11,13,24,25.20
2017,08,11,13,25,24.90
2017,08,11,13,26,24.70
2017,08,11,13,27,24.30
2017,08,11,13,28,24.10
2017,08,11,13,29,23.90
2017,08,11,13,30,23.70
2017,08,11,13,31,23.60
2017,08,11,13,32,23.60
2017,08,11,13,33,23.70
2017,08,11,13,34,23.70
2017,08,11,13,35,23.80
2017,08,11,13,36,23.90
2017,08,11,13,37,24.00
2017,08,11,13,38,24.20
2017,08,11,13,39,24.30
2017,08,11,13,40,24.40
2017,08,11,13,41,24.50
2017,08,11,13,42,24.60
2017,08,11,13,43,24.80
2017,08,11,13,44,24.90
2017,08,11,13,45,25.00
2017,08,11,13,46,25.10
2017,08,11,13,47,25.10
2017,08,11,13,48,25.20
2017,08,11,13,49,25.20
2017,08,11,13,50,25.30
2017,08,11,13,51,25.40
2017,08,11,13,52,25.40
2017,08,11,13,53,25.40
2017,08,11,13,54,25.40
2017,08,11,13,55,25.50
2017,08,11,13,56,25.50
2017,08,11,13,57,25.50
2017,08,11,13,58,25.50
2017,08,11,13,59,25.50
2017,08,11,14,00,25.60
2017,08,11,14,01,25.60
2017,08,11,14,02,25.60
2017,08,11,14,03,25.60
2017,08,11,14,04,25.60
2017,08,11,14,05,25.70
2017,08,11,14,06,25.80
2017,08,11,14,07,25.80
2017,08,11,14,08,25.90
2017,08,11,14,09,26.00
2017,08,11,14,10,26.10
2017,08,11,14,11,26.30
2017,08,11,14,12,26.40
2017,08,11,14,13,26.50
2017,08,11,14,14,26.60
2017,08,11,14,15,26.70
2017,08,11,14,16,26.80
2017,08,11,14,17,26.90
2017,08,11,14,18,27.00
2017,08,11,14,19,27.00
2017,08,11,14,20,27.10
2017,08,11,14,21,27.10
2017,08,11,14,22,27.20
2017,08,11,14,23,27.30
2017,08,11,14,24,27.30
2017,08,11,14,25,27.40
2017,08,11,14,26,27.50
2017,08,11,14,27,27.70
2017,08,11,14,28,27.80
2017,08,11,14,29,27.90
2017,08,11,14,30,28.00
2017,08,11,14,31,28.10
2017,08,11,14,32,28.20
2017,08,11,14,33,28.20
2017,08,11,14,34,28.20
2017,08,11,14,35,28.20
2017,08,11,14,36,28.20
2017,08,11,14,37,28.10
2017,08,11,14,38,28.10
2017,08,11,14,39,28.10
2017,08,11,14,40,28.20
2017,08,11,14,41,28.20
2017,08,11,14,42,28.20
2017,08,11,14,43,28.10
2017,08,11,14,44,27.80
2017,08,11,14,45,27.70
2017,08,11,14,46,27.50
2017,08,11,14,47,27.50
2017,08,11,14,48,27.40
2017,08,11,14,49,27.40
2017,08,11,14,50,27.40
2017,08,11,14,51,27.30
2017,08,11,14,52,27.20
2017,08,11,14,53,27.20
2017,08,11,14,54,27.10
2017,08,11,14,55,27.00
2017,08,11,14,56,27.00
2017,08,11,14,57,27.00
2017,08,11,14,58,27.00
2017,08,11,14,59,27.10
2017,08,11,15,00,27.20
2017,08,11,15,01,27.20
2017,08,11,15,02,27.30
2017,08,11,15,03,27.30
2017,08,11,15,04,27.30
2017,08,11,15,05,27.40
2017,08,11,15,06,27.40
2017,08,11,15,07,27.50
2017,08,11,15,08,27.50
2017,08,11,15,09,27.50
2017,08,11,15,10,27.50
2017,08,11,15,11,27.50
2017,08,11,15,12,27.40
2017,08,11,15,13,27.30
2017,08,11,15,14,27.30
2017,08,11,15,15,27.20
2017,08,11,15,16,27.20
2017,08,11,15,17,27.10
2017,08,11,15,18,27.10
2017,08,11,15,19,27.00
2017,08,11,15,20,27.00
2017,08,11,15,21,26.90
2017,08,11,15,22,26.90
2017,08,11,15,23,26.80
2017,08,11,15,24,26.70
2017,08,11,15,25,26.60
2017,08,11,15,26,26.50
2017,08,11,15,27,26.40
2017,08,11,15,28,26.30
2017,08,11,15,29,26.20
2017,08,11,15,30,26.30
2017,08,11,15,31,26.20
2017,08,11,15,32,26.20
2017,08,11,15,33,26.30
2017,08,11,15,34,26.30
2017,08,11,15,35,26.40
2017,08,11,15,36,26.40
2017,08,11,15,37,26.40
2017,08,11,15,38,26.40
2017,08,11,15,39,26.30
2017,08,11,15,40,26.20
2017,08,11,15,41,26.30
2017,08,11,15,42,26.40
2017,08,11,15,43,26.40
2017,08,11,15,44,26.40
2017,08,11,15,45,26.40
2017,08,11,15,46,26.50
2017,08,11,15,47,26.60
2017,08,11,15,48,26.60
2017,08,11,15,49,26.70
2017,08,11,15,50,26.70
2017,08,11,15,51,26.70
2017,08,11,15,52,26.60
2017,08,11,15,53,26.60
2017,08,11,15,54,26.50
2017,08,11,15,55,26.50
2017,08,11,15,56,26.50
2017,08,11,15,57,26.50
2017,08,11,15,58,26.50
2017,08,11,15,59,26.50
2017,08,11,16,00,26.40
2017,08,11,16,01,26.40
2017,08,11,16,02,26.40
2017,08,11,16,03,26.40
2017,08,11,16,04,26.30
2017,08,11,16,05,26.10
2017,08,11,16,06,26.10
2017,08,11,16,07,26.00
2017,08,11,16,08,25.90
2017,08,11,16,09,25.90
2017,08,11,16,10,25.80
2017,08,11,16,11,25.80
2017,08,11,16,12,25.70
2017,08,11,16,13,25.70
2017,08,11,16,14,25.60
2017,08,11,16,15,25.70
2017,08,11,16,16,25.60
2017,08,11,16,17,25.50
2017,08,11,16,18,25.40
2017,08,11,16,19,25.40
2017,08,11,16,20,25.40
2017,08,11,16,21,25.40
2017,08,11,16,22,25.30
2017,08,11,16,23,25.30
2017,08,11,16,24,25.30
2017,08,11,16,25,25.20
2017,08,11,16,26,25.20
2017,08,11,16,27,25.20
2017,08,11,16,28,25.20
2017,08,11,16,29,25.20
2017,08,11,16,30,25.20
2017,08,11,16,31,25.10
2017,08,11,16,32,25.10
2017,08,11,16,33,25.10
2017,08,11,16,34,25.10
2017,08,11,16,35,25.20
2017,08,11,16,36,25.30
2017,08,11,16,37,25.30
2017,08,11,16,38,25.40
2017,08,11,16,39,25.40
2017,08,11,16,40,25.40
2017,08,11,16,41,25.50
2017,08,11,16,42,25.50
2017,08,11,16,43,25.60
2017,08,11,16,44,25.70
2017,08,11,16,45,25.70
2017,08,11,16,46,25.80
2017,08,11,16,47,25.80
2017,08,11,16,48,25.80
2017,08,11,16,49,25.80
2017,08,11,16,50,25.80
2017,08,11,16,51,25.80
2017,08,11,16,52,25.90
2017,08,11,16,53,26.00
2017,08,11,16,54,26.00
2017,08,11,16,55,26.00
2017,08,11,16,56,25.90
2017,08,11,16,57,25.90
2017,08,11,16,58,25.90
2017,08,11,16,59,25.90
2017,08,11,17,00,25.90
2017,08,11,17,01,25.90
2017,08,11,17,02,25.80
2017,08,11,17,03,25.70
2017,08,11,17,04,25.60
2017,08,11,17,05,25.40
2017,08,11,17,06,25.30
2017,08,11,17,07,25.20
2017,08,11,17,08,25.00
2017,08,11,17,09,24.80
2017,08,11,17,10,24.70
2017,08,11,17,11,24.60
2017,08,11,17,12,24.40
2017,08,11,17,13,24.10
2017,08,11,17,14,23.90
2017,08,11,17,15,23.70
2017,08,11,17,16,23.50
2017,08,11,17,17,23.30
2017,08,11,17,18,23.10
2017,08,11,17,19,22.90